#timestamp,LO_Frequency,Hit 
1505358015.2,286046993.6,N
1505358035.0,286046997.5,N
1505358035.9,286046997.5,N
1505358055.8,286046997.3,N
1505358075.6,286046996.5,N
1505358095.4,286046994.7,N
1505358115.2,286046991.8,N
1505358135.1,286046996.2,N
1505358136.0,286046996.2,N
1505358155.8,286046997.3,N
1505358175.6,286046998.2,N
1505358195.5,286047004.4,N
1505358215.3,286047010.8,N
1505358235.1,286047008.2,N
1505358255.9,286047010.5,N
1505358275.7,286047010.3,N
1505358295.5,286047009.9,N
1505358315.4,286047013.6,N
1505358335.2,286047009.3,N
1505358355.0,286047008.1,N
1505358355.9,286047008.1,N
1505358375.8,286047007.9,N
1505358395.6,286047006.3,N
1505358415.4,286047011.8,N
1505358435.3,286047011.7,N
1505358455.1,286047012.1,N
1505358456.0,286047012.1,N
1505358475.8,286047011.6,N
1505358495.7,286047014.0,N
1505358515.5,286047014.8,N
1505358535.3,286047019.9,N
1505358555.1,286047016.4,N
1505358575.9,286047016.4,N
1505358595.7,286047014.2,N
1505358615.5,286047017.7,N
1505358635.4,286047019.3,N
1505358655.2,286047016.8,N
1505358675.0,286047017.4,N
1505358675.9,286047017.4,N
1505358695.8,286047017.5,P
1505358715.6,286047008.6,N
1505358735.4,286047007.5,N
1505358755.3,286047004.9,N
1505358775.1,286047005.3,N
1505358795.8,286047006.8,N
1505358815.7,286047010.0,N
1505358835.5,286047007.9,N
1505358855.3,286047010.6,N
1505358875.2,286047008.3,N
1505358895.9,286047008.7,N
1505358915.7,286047009.0,N
1505358935.6,286047008.8,N
1505358955.4,286047006.1,N
1505358975.2,286047006.1,N
1505358995.0,286047005.3,N
1505358995.9,286047005.3,N
1505359015.8,286047004.1,N
1505359035.6,286047002.4,N
1505359055.4,286046998.6,N
1505359075.3,286046995.2,N
1505359095.1,286046994.6,N
1505359115.8,286046992.1,N
1505359135.7,286046990.9,N
1505359155.5,286046991.2,N
1505359175.3,286046987.8,N
1505359195.2,286046989.9,N
1505359215.9,286046987.7,N
1505359235.7,286046989.7,N
1505359255.5,286046986.9,N
1505359275.4,286046987.7,N
1505359295.2,286046988.4,N
1505359315.0,286046984.1,N
1505359315.9,286046984.1,N
1505359335.8,286046983.0,N
1505359355.6,286046981.1,N
1505359375.4,286046982.1,N
1505359395.3,286046986.5,N
1505359415.1,286046986.2,N
1505359435.8,286046984.0,N
1505359455.7,286046981.3,N
1505359475.5,286046979.4,N
1505359495.3,286046979.4,N
1505359515.2,286046981.5,N
1505359535.9,286046979.3,N
1505359555.7,286046979.5,N
1505359575.6,286046977.4,P
1505359595.4,286046991.3,N
1505359615.2,286046988.7,N
1505359635.1,286046989.5,N
1505359636.0,286046989.5,N
1505359655.8,286046987.7,N
1505359675.6,286046985.8,P
1505359695.5,286047002.3,N
1505359715.3,286047000.0,N
1505359735.1,286047000.6,N
1505359755.9,286046999.0,N
1505359775.7,286046999.4,N
1505359795.5,286046997.1,N
1505359815.4,286046999.6,N
1505359835.2,286046996.8,N
1505359855.0,286046997.4,N
1505359855.9,286046997.4,N
1505359875.7,286046997.8,N
1505359895.6,286046995.5,N
1505359915.4,286046993.7,N
1505359935.2,286046994.5,N
1505359955.1,286046993.7,N
1505359956.0,286046993.7,N
1505359975.8,286046995.2,N
1505359995.6,286046994.9,N
1505360015.5,286046994.8,N
1505360035.3,286046996.0,N
1505360055.1,286046996.3,N
1505360075.9,286047002.7,N
1505360095.7,286047007.3,N
1505360115.5,286047008.7,N
1505360135.3,286047013.4,N
1505360155.2,286047014.2,N
1505360175.0,286047016.7,N
1505360175.9,286047016.7,N
1505360195.7,286047018.2,N
1505360215.6,286047020.5,N
1505360235.4,286047019.1,N
1505360255.2,286047024.8,N
1505360275.1,286047026.0,N
1505360276.0,286047026.0,N
1505360295.8,286047026.2,N
1505360315.6,286047028.6,N
1505360335.5,286047026.7,N
1505360355.3,286047026.8,N
1505360375.1,286047026.4,N
1505360395.9,286047023.7,N
1505360415.7,286047029.5,N
1505360435.5,286047028.0,N
1505360455.4,286047026.9,N
1505360475.2,286047027.8,N
1505360495.0,286047026.2,N
1505360495.9,286047026.2,N
1505360515.7,286047026.2,N
1505360535.6,286047026.4,N
1505360555.4,286047026.1,N
1505360575.2,286047028.0,N
1505360595.1,286047026.5,P
1505360596.0,286047026.5,P
1505360615.8,286047005.4,N
1505360635.7,286047007.6,N
1505360655.5,286047003.7,N
1505360675.3,286047003.3,N
1505360695.1,286047005.3,N
1505360715.9,286047006.1,N
1505360735.7,286047007.9,N
1505360755.5,286047007.7,N
1505360775.4,286047010.1,N
1505360795.2,286047006.8,N
1505360815.0,286047008.3,N
1505360815.9,286047008.3,N
1505360835.8,286047009.5,N
1505360855.6,286047010.8,N
1505360875.4,286047009.3,N
1505360895.3,286047013.3,N
1505360915.1,286047013.7,N
1505360916.0,286047013.7,N
1505360935.8,286047008.2,N
1505360955.7,286047010.4,N
1505360975.5,286047006.8,N
1505360995.3,286047003.9,N
1505361015.2,286046997.4,N
1505361035.9,286046999.1,N
1505361055.7,286046996.9,N
1505361075.5,286047000.7,N
1505361095.4,286046998.6,N
1505361115.2,286046996.9,N
1505361135.0,286046996.1,N
1505361135.9,286046996.1,N
1505361155.8,286046993.4,N
1505361175.6,286046992.4,N
1505361195.4,286046994.7,N
1505361215.3,286046994.6,N
1505361235.1,286046993.4,N
1505361255.8,286046990.3,N
1505361275.7,286046991.3,N
1505361295.5,286046991.6,N
1505361315.3,286046989.8,N
1505361335.2,286046989.9,N
1505361355.9,286046989.1,N
1505361375.7,286046985.9,N
1505361395.6,286046984.4,N
1505361415.4,286046984.9,N
1505361435.2,286046984.0,N
1505361455.0,286046986.8,N
1505361455.9,286046986.8,N
1505361475.8,286046983.7,N
1505361495.6,286046986.6,N
1505361515.4,286046983.0,N
1505361535.3,286046983.3,N
1505361555.1,286046984.0,N
1505361575.9,286046982.1,P
1505361595.7,286046989.2,N
